Satellite-Ground Cal/Val Site Overpasses Predictions

Prediction of Satellite NPP Overpassing Cal/Val Site: Antarctic Dome C

Ground Cal/Val Site Location: Latitude: -75.10, Longitude: 123.35; Satellite-Ground Site NADIR distance within 100 km.

Table of predicted overpasses for the next 14.0 days since TLE Epoch: 9/27/2012
Interval Starting Time Ending Time Minimum Distance Time Minimum Distance (km)
1 09/28/2012 14:52:43 09/28/2012 14:53:12 09/28/2012 14:52:57 19.09
2 09/29/2012 14:34:00 09/29/2012 14:34:14 09/29/2012 14:34:07 87.91
3 09/30/2012 07:35:32 09/30/2012 07:35:59 09/30/2012 07:35:45 35.42
4 10/01/2012 07:16:45 10/01/2012 07:17:04 10/01/2012 07:16:54 74.82
5 10/03/2012 14:58:57 10/03/2012 14:59:21 10/03/2012 14:59:09 55.76
6 10/04/2012 14:40:07 10/04/2012 14:40:31 10/04/2012 14:40:19 53.33
7 10/05/2012 07:41:46 10/05/2012 07:42:07 10/05/2012 07:41:56 70.31
8 10/06/2012 07:22:53 10/06/2012 07:23:20 10/06/2012 07:23:06 37.85
9 10/08/2012 15:05:16 10/08/2012 15:05:26 10/08/2012 15:05:21 93.08
10 10/09/2012 14:46:15 10/09/2012 14:46:43 10/09/2012 14:46
